COSMOS 2529 [GLONASS-M] (43687 NORAD) Tracking and Keplerian Element Data

This shows tracking and keplerian element data for the satellite.

Feedback or suggestion? Click here.




ElementValue
Catalog43687
NameCOSMOS 2529 [GLONASS-M]
Epoch Orbit33
Epoch Day323.68133331
Epoch Year2018
RAAN286.9492
Inclination64.8046
Eccentricity0.0008997
Argument of Perigee257.0392
Mean Anonmoly296.5331
Mean Motion2.13029418
Decay Rate-1.1E-07
L11 43687U 18086A 18323.68133331 -.00000011 00000-0 00000+0 0 9998
L22 43687 64.8046 286.9492 0008997 257.0392 296.5331 2.13029418 334

Live tracking and technical data element details for COSMOS 2529 [GLONASS-M] (NORAD 43687). COSMOS 2529 [GLONASS-M] can be tracked NOW for your location showing map with azimuth and elevation plus other details from your city location.

Track the satellite on the map from your city or location and see movement details for azimuth, elevation, latitude, longitude, range, height, and movement on the map or in text.







IsCatalogInMostPopularTable: catalog: 43687, numindb: 12
Update: records affected: 1



GetName: 43687 COSMOS 2529 [GLONASS-M]

Hit Count: updated at: Tue, 20 Nov 2018 11:36:25 GMT